Time,TemperatureF,DewpointF,PressureIn,WindDirection,WindDirectionDegrees,WindSpeedMPH,WindSpeedGustMPH,Humidity,HourlyPrecipIn,Conditions,Clouds,dailyrainin,SoftwareType,DateUTC
2013-04-05 00:00:00,39.8,32.1,30.24,East,90,0.0,0.2,74,0.00,,,0.00,WUHU216HW,2013-04-04 23:00:00,
2013-04-05 00:05:00,39.2,31.6,30.24,East,90,0.0,0.2,74,0.00,,,0.00,WUHU216HW,2013-04-04 23:05:00,
2013-04-05 00:10:00,38.9,31.2,30.24,East,90,0.0,0.0,74,0.00,,,0.00,WUHU216HW,2013-04-04 23:10:00,
2013-04-05 00:15:00,38.9,31.2,30.24,East,90,0.0,0.0,74,0.00,,,0.00,WUHU216HW,2013-04-04 23:15:00,
2013-04-05 00:20:00,39.2,32.3,30.24,NE,45,0.0,0.0,76,0.00,,,0.00,WUHU216HW,2013-04-04 23:20:00,
2013-04-05 00:25:00,39.2,32.3,30.24,NE,45,0.4,0.4,76,0.00,,,0.00,WUHU216HW,2013-04-04 23:25:00,
2013-04-05 00:30:00,39.2,32.3,30.23,ENE,68,0.4,0.4,76,0.00,,,0.00,WUHU216HW,2013-04-04 23:30:00,
2013-04-05 00:35:00,39.1,31.8,30.23,ENE,68,0.0,0.4,75,0.00,,,0.00,WUHU216HW,2013-04-04 23:35:00,
2013-04-05 00:41:00,38.5,31.2,30.23,ENE,68,0.0,0.0,75,0.00,,,0.00,WUHU216HW,2013-04-04 23:41:00,
2013-04-05 00:46:00,38.0,30.8,30.23,ENE,68,0.4,0.4,75,0.00,,,0.00,WUHU216HW,2013-04-04 23:46:00,
2013-04-05 00:51:00,37.4,30.6,30.23,ENE,68,0.7,0.7,76,0.00,,,0.00,WUHU216HW,2013-04-04 23:51:00,
2013-04-05 00:56:00,37.4,30.6,30.23,ENE,68,0.0,0.7,76,0.00,,,0.00,WUHU216HW,2013-04-04 23:56:00,
2013-04-05 01:01:00,37.4,30.9,30.23,ENE,68,0.0,0.7,77,0.00,,,0.00,WUHU216HW,2013-04-05 00:01:00,
2013-04-05 01:06:00,37.4,30.6,30.23,ENE,68,0.0,0.2,76,0.00,,,0.00,WUHU216HW,2013-04-05 00:06:00,
2013-04-05 01:11:00,37.4,30.9,30.23,ENE,68,0.4,0.4,77,0.00,,,0.00,WUHU216HW,2013-04-05 00:11:00,
2013-04-05 01:16:00,37.4,31.2,30.23,ENE,68,0.0,0.4,78,0.00,,,0.00,WUHU216HW,2013-04-05 00:16:00,
2013-04-05 01:21:00,37.8,31.6,30.23,East,90,0.4,0.4,78,0.00,,,0.00,WUHU216HW,2013-04-05 00:21:00,
2013-04-05 01:26:00,37.8,31.9,30.23,SSE,158,0.7,0.7,79,0.00,,,0.00,WUHU216HW,2013-04-05 00:26:00,
2013-04-05 01:31:00,38.0,32.0,30.23,SSE,158,0.4,0.7,79,0.00,,,0.00,WUHU216HW,2013-04-05 00:31:00,
2013-04-05 01:36:00,38.2,32.2,30.23,ENE,68,0.7,1.1,79,0.00,,,0.00,WUHU216HW,2013-04-05 00:36:00,
2013-04-05 01:41:00,38.2,32.0,30.23,ENE,68,0.2,1.1,78,0.00,,,0.00,WUHU216HW,2013-04-05 00:41:00,
2013-04-05 01:46:00,38.3,32.8,30.23,SE,135,1.1,1.1,80,0.00,,,0.00,WUHU216HW,2013-04-05 00:46:00,
2013-04-05 01:51:00,38.5,32.9,30.23,SSW,203,0.4,1.1,80,0.00,,,0.00,WUHU216HW,2013-04-05 00:51:00,
2013-04-05 01:56:00,38.5,32.9,30.23,SE,135,0.4,0.4,80,0.00,,,0.00,WUHU216HW,2013-04-05 00:56:00,
2013-04-05 02:01:00,38.5,32.6,30.22,East,90,0.4,0.4,79,0.00,,,0.00,WUHU216HW,2013-04-05 01:01:00,
2013-04-05 02:06:00,38.5,32.6,30.22,ENE,68,0.7,0.7,79,0.00,,,0.00,WUHU216HW,2013-04-05 01:06:00,
2013-04-05 02:11:00,38.3,32.4,30.22,ESE,113,0.9,0.9,79,0.00,,,0.00,WUHU216HW,2013-04-05 01:11:00,
2013-04-05 02:16:00,38.3,32.4,30.22,SE,135,0.7,0.9,79,0.00,,,0.00,WUHU216HW,2013-04-05 01:16:00,
2013-04-05 02:21:00,38.2,32.2,30.22,ESE,113,1.1,1.1,79,0.00,,,0.00,WUHU216HW,2013-04-05 01:21:00,
2013-04-05 02:26:00,38.2,32.2,30.22,ESE,113,0.4,1.1,79,0.00,,,0.00,WUHU216HW,2013-04-05 01:26:00,
2013-04-05 02:31:00,38.0,32.0,30.22,East,90,0.7,1.1,79,0.00,,,0.00,WUHU216HW,2013-04-05 01:31:00,
2013-04-05 02:36:00,38.0,32.4,30.22,East,90,0.7,0.7,80,0.00,,,0.00,WUHU216HW,2013-04-05 01:36:00,
2013-04-05 02:41:00,38.0,32.4,30.22,East,90,0.4,0.7,80,0.00,,,0.00,WUHU216HW,2013-04-05 01:41:00,
2013-04-05 02:46:00,38.2,32.6,30.22,ENE,68,0.2,0.7,80,0.00,,,0.00,WUHU216HW,2013-04-05 01:46:00,
2013-04-05 02:51:00,38.2,32.6,30.22,ESE,113,0.4,0.4,80,0.00,,,0.00,WUHU216HW,2013-04-05 01:51:00,
2013-04-05 02:56:00,38.2,32.6,30.22,East,90,0.2,0.4,80,0.00,,,0.00,WUHU216HW,2013-04-05 01:56:00,
2013-04-05 03:01:00,38.3,32.8,30.22,SE,135,0.4,0.7,80,0.00,,,0.00,WUHU216HW,2013-04-05 02:01:00,
2013-04-05 03:06:00,38.3,32.8,30.22,SE,135,0.4,0.7,80,0.00,,,0.00,WUHU216HW,2013-04-05 02:06:00,
2013-04-05 03:11:00,38.0,32.0,30.22,SE,135,0.0,0.4,79,0.00,,,0.00,WUHU216HW,2013-04-05 02:11:00,
2013-04-05 03:16:00,37.4,31.9,30.22,SE,135,0.0,0.4,80,0.00,,,0.00,WUHU216HW,2013-04-05 02:16:00,
2013-04-05 03:22:00,37.1,31.5,30.22,SE,135,0.4,0.4,80,0.00,,,0.00,WUHU216HW,2013-04-05 02:22:00,
2013-04-05 03:27:00,37.1,31.5,30.22,East,90,0.0,0.4,80,0.00,,,0.00,WUHU216HW,2013-04-05 02:27:00,
2013-04-05 03:32:00,36.7,31.4,30.22,East,90,0.0,0.0,81,0.00,,,0.00,WUHU216HW,2013-04-05 02:32:00,
2013-04-05 03:37:00,36.9,31.6,30.22,NNE,23,0.2,0.2,81,0.00,,,0.00,WUHU216HW,2013-04-05 02:37:00,
2013-04-05 03:42:00,36.9,31.6,30.22,ESE,113,1.1,1.1,81,0.00,,,0.00,WUHU216HW,2013-04-05 02:42:00,
2013-04-05 03:47:00,37.1,31.5,30.22,SE,135,0.4,1.1,80,0.00,,,0.00,WUHU216HW,2013-04-05 02:47:00,
2013-04-05 03:52:00,37.1,31.5,30.22,SE,135,0.2,0.4,80,0.00,,,0.00,WUHU216HW,2013-04-05 02:52:00,
2013-04-05 03:57:00,37.3,31.7,30.22,SE,135,0.2,0.4,80,0.00,,,0.00,WUHU216HW,2013-04-05 02:57:00,
2013-04-05 04:02:00,37.3,31.7,30.22,SE,135,0.0,0.4,80,0.00,,,0.00,WUHU216HW,2013-04-05 03:02:00,
2013-04-05 04:07:00,37.3,31.7,30.22,ESE,113,0.9,0.9,80,0.00,,,0.00,WUHU216HW,2013-04-05 03:07:00,
2013-04-05 04:12:00,37.3,31.7,30.22,ESE,113,0.4,0.9,80,0.00,,,0.00,WUHU216HW,2013-04-05 03:12:00,
2013-04-05 04:17:00,37.3,31.7,30.22,NE,45,0.0,0.7,80,0.00,,,0.00,WUHU216HW,2013-04-05 03:17:00,
2013-04-05 04:22:00,37.1,31.1,30.22,NE,45,0.0,0.4,79,0.00,,,0.00,WUHU216HW,2013-04-05 03:22:00,
2013-04-05 04:27:00,36.7,30.8,30.22,NE,45,0.0,0.0,79,0.00,,,0.00,WUHU216HW,2013-04-05 03:27:00,
2013-04-05 04:32:00,36.2,30.2,30.22,ENE,68,0.0,0.0,79,0.00,,,0.00,WUHU216HW,2013-04-05 03:32:00,
2013-04-05 04:37:00,35.6,29.7,30.21,NE,45,0.2,0.2,79,0.00,,,0.00,WUHU216HW,2013-04-05 03:37:00,
2013-04-05 04:42:00,34.6,28.6,30.21,NE,45,0.0,0.2,79,0.00,,,0.00,WUHU216HW,2013-04-05 03:42:00,
2013-04-05 04:47:00,34.2,28.3,30.22,NE,45,0.2,0.2,79,0.00,,,0.00,WUHU216HW,2013-04-05 03:47:00,
2013-04-05 04:52:00,33.8,27.9,30.22,NE,45,0.0,0.2,79,0.00,,,0.00,WUHU216HW,2013-04-05 03:52:00,
2013-04-05 04:57:00,33.7,28.1,30.22,NE,45,0.0,0.2,80,0.00,,,0.00,WUHU216HW,2013-04-05 03:57:00,
2013-04-05 05:02:00,33.7,28.1,30.22,ENE,68,0.0,0.0,80,0.00,,,0.00,WUHU216HW,2013-04-05 04:02:00,
2013-04-05 05:07:00,33.8,28.3,30.21,ENE,68,0.0,0.0,80,0.00,,,0.00,WUHU216HW,2013-04-05 04:07:00,
2013-04-05 05:12:00,34.0,28.4,30.21,ENE,68,0.0,0.2,80,0.00,,,0.00,WUHU216HW,2013-04-05 04:12:00,
2013-04-05 05:17:00,34.2,28.9,30.21,ENE,68,0.0,0.7,81,0.00,,,0.00,WUHU216HW,2013-04-05 04:17:00,
2013-04-05 05:22:00,34.4,29.1,30.21,ENE,68,0.0,0.7,81,0.00,,,0.00,WUHU216HW,2013-04-05 04:22:00,
2013-04-05 05:27:00,34.6,29.0,30.21,ENE,68,0.0,0.0,80,0.00,,,0.00,WUHU216HW,2013-04-05 04:27:00,
2013-04-05 05:32:00,34.9,29.3,30.21,NE,45,0.0,0.4,80,0.00,,,0.00,WUHU216HW,2013-04-05 04:32:00,
2013-04-05 05:37:00,34.9,29.3,30.21,ENE,68,0.0,0.4,80,0.00,,,0.00,WUHU216HW,2013-04-05 04:37:00,
2013-04-05 05:42:00,34.9,29.3,30.21,ENE,68,0.0,0.0,80,0.00,,,0.00,WUHU216HW,2013-04-05 04:42:00,
2013-04-05 05:47:00,35.3,29.3,30.22,ESE,113,0.2,1.8,79,0.00,,,0.00,WUHU216HW,2013-04-05 04:47:00,
2013-04-05 05:52:00,35.6,29.7,30.22,ESE,113,0.0,1.8,79,0.00,,,0.00,WUHU216HW,2013-04-05 04:52:00,
2013-04-05 05:57:00,35.8,29.6,30.22,ESE,113,2.2,2.2,78,0.00,,,0.00,WUHU216HW,2013-04-05 04:57:00,
2013-04-05 06:02:00,36.2,29.6,30.22,SE,135,0.9,2.2,77,0.00,,,0.00,WUHU216HW,2013-04-05 05:02:00,
2013-04-05 06:07:00,36.2,29.4,30.22,NE,45,0.4,2.2,76,0.00,,,0.00,WUHU216HW,2013-04-05 05:07:00,
2013-04-05 06:12:00,36.2,29.0,30.22,SE,135,1.8,1.8,75,0.00,,,0.00,WUHU216HW,2013-04-05 05:12:00,
2013-04-05 06:17:00,36.4,28.8,30.22,ESE,113,0.0,1.8,74,0.00,,,0.00,WUHU216HW,2013-04-05 05:17:00,
2013-04-05 06:22:00,36.2,28.6,30.22,ESE,113,1.1,1.8,74,0.00,,,0.00,WUHU216HW,2013-04-05 05:22:00,
2013-04-05 06:27:00,36.4,28.8,30.22,ESE,113,0.4,1.1,74,0.00,,,0.00,WUHU216HW,2013-04-05 05:27:00,
2013-04-05 06:32:00,36.2,28.6,30.22,ENE,68,0.0,1.1,74,0.00,,,0.00,WUHU216HW,2013-04-05 05:32:00,
2013-04-05 06:37:00,36.2,28.6,30.22,ENE,68,0.2,0.2,74,0.00,,,0.00,WUHU216HW,2013-04-05 05:37:00,
2013-04-05 06:42:00,36.0,28.4,30.22,ENE,68,0.0,0.2,74,0.00,,,0.00,WUHU216HW,2013-04-05 05:42:00,
2013-04-05 06:47:00,35.8,28.0,30.22,SE,135,2.5,2.5,73,0.00,,,0.00,WUHU216HW,2013-04-05 05:47:00,
2013-04-05 06:52:00,35.8,28.0,30.22,East,90,0.0,2.5,73,0.00,,,0.00,WUHU216HW,2013-04-05 05:52:00,
2013-04-05 06:57:00,35.6,27.8,30.22,East,90,0.2,2.5,73,0.00,,,0.00,WUHU216HW,2013-04-05 05:57:00,
2013-04-05 07:02:00,35.6,27.8,30.22,East,90,1.1,1.1,73,0.00,,,0.00,WUHU216HW,2013-04-05 06:02:00,
2013-04-05 07:07:00,35.6,27.8,30.22,NNE,23,0.4,1.1,73,0.00,,,0.00,WUHU216HW,2013-04-05 06:07:00,
2013-04-05 07:12:00,35.8,28.0,30.22,NE,45,0.2,1.1,73,0.00,,,0.00,WUHU216HW,2013-04-05 06:12:00,
2013-04-05 07:17:00,35.6,27.8,30.23,ESE,113,0.0,0.4,73,0.00,,,0.00,WUHU216HW,2013-04-05 06:17:00,
2013-04-05 07:22:00,35.8,28.0,30.23,ESE,113,0.0,0.2,73,0.00,,,0.00,WUHU216HW,2013-04-05 06:22:00,
2013-04-05 07:27:00,35.6,27.8,30.23,ESE,113,0.0,0.0,73,0.00,,,0.00,WUHU216HW,2013-04-05 06:27:00,
2013-04-05 07:32:00,35.1,27.3,30.23,ESE,113,0.0,0.4,73,0.00,,,0.00,WUHU216HW,2013-04-05 06:32:00,
2013-04-05 07:37:00,35.3,27.5,30.23,SE,135,0.4,0.4,73,0.00,,,0.00,WUHU216HW,2013-04-05 06:37:00,
2013-04-05 07:42:00,35.6,27.8,30.24,SE,135,0.0,1.1,73,0.00,,,0.00,WUHU216HW,2013-04-05 06:42:00,
2013-04-05 07:47:00,35.8,28.0,30.23,SE,135,0.0,1.1,73,0.00,,,0.00,WUHU216HW,2013-04-05 06:47:00,
2013-04-05 07:52:00,36.0,28.2,30.24,SE,135,0.0,0.0,73,0.00,,,0.00,WUHU216HW,2013-04-05 06:52:00,
2013-04-05 07:57:00,36.5,28.7,30.24,SE,135,1.1,1.1,73,0.00,,,0.00,WUHU216HW,2013-04-05 06:57:00,
2013-04-05 08:02:00,36.7,28.5,30.24,SE,135,0.2,1.1,72,0.00,,,0.00,WUHU216HW,2013-04-05 07:02:00,
2013-04-05 08:07:00,37.1,28.6,30.24,SE,135,0.4,1.1,71,0.00,,,0.00,WUHU216HW,2013-04-05 07:07:00,
2013-04-05 08:12:00,37.6,29.1,30.24,SE,135,0.4,0.4,71,0.00,,,0.00,WUHU216HW,2013-04-05 07:12:00,
2013-04-05 08:17:00,39.1,30.1,30.24,ESE,113,0.2,0.4,70,0.00,,,0.00,WUHU216HW,2013-04-05 07:17:00,
2013-04-05 08:22:00,40.5,30.3,30.24,SE,135,0.4,0.4,67,0.00,,,0.00,WUHU216HW,2013-04-05 07:22:00,
2013-04-05 08:27:00,41.2,29.5,30.24,ESE,113,0.4,0.4,63,0.00,,,0.00,WUHU216HW,2013-04-05 07:27:00,
2013-04-05 08:32:00,40.7,29.1,30.24,East,90,0.4,0.4,63,0.00,,,0.00,WUHU216HW,2013-04-05 07:32:00,
2013-04-05 08:37:00,40.0,28.4,30.24,ENE,68,1.1,1.1,63,0.00,,,0.00,WUHU216HW,2013-04-05 07:37:00,
2013-04-05 08:42:00,39.2,28.4,30.24,NE,45,0.4,1.1,65,0.00,,,0.00,WUHU216HW,2013-04-05 07:42:00,
2013-04-05 08:47:00,38.9,28.0,30.24,East,90,1.8,1.8,65,0.00,,,0.00,WUHU216HW,2013-04-05 07:47:00,
2013-04-05 08:52:00,38.9,28.0,30.25,ENE,68,1.1,1.8,65,0.00,,,0.00,WUHU216HW,2013-04-05 07:52:00,
2013-04-05 08:58:00,38.7,27.9,30.24,East,90,0.4,1.8,65,0.00,,,0.00,WUHU216HW,2013-04-05 07:58:00,
2013-04-05 09:03:00,38.7,27.9,30.25,ESE,113,1.8,1.8,65,0.00,,,0.00,WUHU216HW,2013-04-05 08:03:00,
2013-04-05 09:08:00,38.7,27.9,30.25,ENE,68,0.7,1.8,65,0.00,,,0.00,WUHU216HW,2013-04-05 08:08:00,
2013-04-05 09:13:00,38.7,27.9,30.25,East,90,0.4,0.9,65,0.00,,,0.00,WUHU216HW,2013-04-05 08:13:00,
2013-04-05 09:18:00,38.7,28.3,30.25,SE,135,1.1,1.1,66,0.00,,,0.00,WUHU216HW,2013-04-05 08:18:00,
2013-04-05 09:23:00,39.2,28.7,30.25,SE,135,0.9,1.1,66,0.00,,,0.00,WUHU216HW,2013-04-05 08:23:00,
2013-04-05 09:28:00,39.2,28.7,30.25,SE,135,0.2,0.9,66,0.00,,,0.00,WUHU216HW,2013-04-05 08:28:00,
2013-04-05 09:33:00,39.6,28.7,30.25,WNW,293,1.3,1.3,65,0.00,,,0.00,WUHU216HW,2013-04-05 08:33:00,
2013-04-05 09:38:00,40.0,29.8,30.25,East,90,0.4,1.3,67,0.00,,,0.00,WUHU216HW,2013-04-05 08:38:00,
2013-04-05 09:43:00,40.0,29.4,30.25,North,0,0.2,1.3,66,0.00,,,0.00,WUHU216HW,2013-04-05 08:43:00,
2013-04-05 09:48:00,40.1,29.3,30.25,ESE,113,0.2,0.4,65,0.00,,,0.00,WUHU216HW,2013-04-05 08:48:00,
2013-04-05 09:53:00,40.1,28.9,30.25,SE,135,2.0,2.0,64,0.00,,,0.00,WUHU216HW,2013-04-05 08:53:00,
2013-04-05 09:58:00,40.3,29.4,30.25,ESE,113,3.4,3.4,65,0.00,,,0.00,WUHU216HW,2013-04-05 08:58:00,
2013-04-05 10:03:00,40.3,29.1,30.25,ENE,68,0.0,3.4,64,0.00,,,0.00,WUHU216HW,2013-04-05 09:03:00,
2013-04-05 10:08:00,40.1,28.9,30.25,ESE,113,1.6,1.6,64,0.00,,,0.00,WUHU216HW,2013-04-05 09:08:00,
2013-04-05 10:13:00,40.3,28.7,30.25,ESE,113,1.6,1.6,63,0.00,,,0.00,WUHU216HW,2013-04-05 09:13:00,
2013-04-05 10:18:00,40.7,29.1,30.25,SE,135,3.1,3.1,63,0.00,,,0.00,WUHU216HW,2013-04-05 09:18:00,
2013-04-05 10:23:00,40.7,29.1,30.25,East,90,0.7,3.1,63,0.00,,,0.00,WUHU216HW,2013-04-05 09:23:00,
2013-04-05 10:28:00,40.7,29.4,30.26,SE,135,1.8,3.1,64,0.00,,,0.00,WUHU216HW,2013-04-05 09:28:00,
2013-04-05 10:33:00,40.9,29.3,30.26,NNE,23,0.4,2.2,63,0.00,,,0.00,WUHU216HW,2013-04-05 09:33:00,
2013-04-05 10:38:00,40.9,29.3,30.26,NE,45,0.7,2.2,63,0.00,,,0.00,WUHU216HW,2013-04-05 09:38:00,
2013-04-05 10:43:00,40.7,29.1,30.25,NW,315,0.4,0.7,63,0.00,,,0.00,WUHU216HW,2013-04-05 09:43:00,
2013-04-05 10:48:00,40.5,28.9,30.25,WNW,293,0.2,0.7,63,0.00,,,0.00,WUHU216HW,2013-04-05 09:48:00,
2013-04-05 10:53:00,40.7,29.4,30.25,NW,315,1.1,1.1,64,0.00,,,0.00,WUHU216HW,2013-04-05 09:53:00,
2013-04-05 10:58:00,41.0,28.6,30.25,ESE,113,2.5,2.5,61,0.00,,,0.00,WUHU216HW,2013-04-05 09:58:00,
2013-04-05 11:03:00,41.0,28.6,30.25,West,270,0.4,2.5,61,0.00,,,0.00,WUHU216HW,2013-04-05 10:03:00,
2013-04-05 11:08:00,41.2,28.8,30.25,East,90,1.1,2.5,61,0.00,,,0.00,WUHU216HW,2013-04-05 10:08:00,
2013-04-05 11:13:00,41.4,29.3,30.25,ESE,113,0.4,1.1,62,0.00,,,0.00,WUHU216HW,2013-04-05 10:13:00,
2013-04-05 11:18:00,41.8,29.3,30.25,NW,315,0.4,1.1,61,0.00,,,0.00,WUHU216HW,2013-04-05 10:18:00,
2013-04-05 11:23:00,41.8,29.3,30.25,SE,135,3.4,3.4,61,0.00,,,0.00,WUHU216HW,2013-04-05 10:23:00,
2013-04-05 11:28:00,42.1,28.8,30.25,SE,135,3.4,3.4,59,0.00,,,0.00,WUHU216HW,2013-04-05 10:28:00,
2013-04-05 11:33:00,42.1,27.9,30.25,East,90,2.0,3.4,57,0.00,,,0.00,WUHU216HW,2013-04-05 10:33:00,
2013-04-05 11:38:00,42.1,27.9,30.25,SE,135,1.3,3.4,57,0.00,,,0.00,WUHU216HW,2013-04-05 10:38:00,
2013-04-05 11:43:00,42.1,28.4,30.25,ESE,113,6.3,6.3,58,0.00,,,0.00,WUHU216HW,2013-04-05 10:43:00,
2013-04-05 11:48:00,42.3,28.5,30.25,NNE,23,1.3,6.3,58,0.00,,,0.00,WUHU216HW,2013-04-05 10:48:00,
2013-04-05 11:53:00,42.5,28.7,30.25,ESE,113,1.3,1.8,58,0.00,,,0.00,WUHU216HW,2013-04-05 10:53:00,
2013-04-05 11:58:00,42.8,28.6,30.25,ESE,113,3.4,3.4,57,0.00,,,0.00,WUHU216HW,2013-04-05 10:58:00,
2013-04-05 12:03:00,42.5,28.3,30.25,ESE,113,0.4,3.4,57,0.00,,,0.00,WUHU216HW,2013-04-05 11:03:00,
2013-04-05 12:08:00,42.8,29.0,30.25,SSE,158,1.1,1.1,58,0.00,,,0.00,WUHU216HW,2013-04-05 11:08:00,
2013-04-05 12:13:00,43.0,28.4,30.25,ESE,113,1.8,1.8,56,0.00,,,0.00,WUHU216HW,2013-04-05 11:13:00,
2013-04-05 12:18:00,43.2,28.1,30.25,East,90,1.1,2.2,55,0.00,,,0.00,WUHU216HW,2013-04-05 11:18:00,
2013-04-05 12:24:00,43.2,28.1,30.25,ESE,113,1.8,2.2,55,0.00,,,0.00,WUHU216HW,2013-04-05 11:24:00,
2013-04-05 12:29:00,43.6,29.3,30.24,SW,225,1.6,2.2,57,0.00,,,0.00,WUHU216HW,2013-04-05 11:29:00,
2013-04-05 12:34:00,43.6,28.5,30.24,East,90,0.9,2.2,55,0.00,,,0.00,WUHU216HW,2013-04-05 11:34:00,
2013-04-05 12:39:00,43.6,28.0,30.24,ESE,113,2.5,2.5,54,0.00,,,0.00,WUHU216HW,2013-04-05 11:39:00,
2013-04-05 12:44:00,43.4,27.8,30.24,SE,135,2.9,2.9,54,0.00,,,0.00,WUHU216HW,2013-04-05 11:44:00,
2013-04-05 12:49:00,43.6,28.8,30.24,SSW,203,0.4,2.9,56,0.00,,,0.00,WUHU216HW,2013-04-05 11:49:00,
2013-04-05 12:54:00,43.9,29.2,30.24,NNE,23,0.4,1.8,56,0.00,,,0.00,WUHU216HW,2013-04-05 11:54:00,
2013-04-05 12:59:00,43.9,28.3,30.24,ENE,68,1.1,1.1,54,0.00,,,0.00,WUHU216HW,2013-04-05 11:59:00,
2013-04-05 13:04:00,44.3,28.6,30.24,WNW,293,1.1,1.1,54,0.00,,,0.00,WUHU216HW,2013-04-05 12:04:00,
2013-04-05 13:09:00,44.3,28.6,30.25,ESE,113,1.8,1.8,54,0.00,,,0.00,WUHU216HW,2013-04-05 12:09:00,
2013-04-05 13:14:00,44.1,28.0,30.25,East,90,0.4,1.8,53,0.00,,,0.00,WUHU216HW,2013-04-05 12:14:00,
2013-04-05 13:19:00,43.9,28.3,30.25,ENE,68,0.2,1.8,54,0.00,,,0.00,WUHU216HW,2013-04-05 12:19:00,
2013-04-05 13:24:00,44.3,28.6,30.25,East,90,2.5,2.5,54,0.00,,,0.00,WUHU216HW,2013-04-05 12:24:00,
2013-04-05 13:29:00,44.6,28.5,30.25,North,0,0.7,2.5,53,0.00,,,0.00,WUHU216HW,2013-04-05 12:29:00,
2013-04-05 13:34:00,44.6,28.5,30.25,NNW,338,0.7,2.5,53,0.00,,,0.00,WUHU216HW,2013-04-05 12:34:00,
2013-04-05 13:39:00,44.3,27.7,30.25,East,90,3.4,3.4,52,0.00,,,0.00,WUHU216HW,2013-04-05 12:39:00,
2013-04-05 13:45:00,44.3,28.2,30.25,ESE,113,0.0,3.4,53,0.00,,,0.00,WUHU216HW,2013-04-05 12:45:00,
2013-04-05 13:50:00,45.0,29.8,30.25,SSW,203,0.9,3.4,55,0.00,,,0.00,WUHU216HW,2013-04-05 12:50:00,
2013-04-05 13:55:00,45.0,28.9,30.24,SE,135,2.2,2.2,53,0.00,,,0.00,WUHU216HW,2013-04-05 12:55:00,
2013-04-05 14:00:00,45.4,29.6,30.24,NE,45,1.3,2.2,54,0.00,,,0.00,WUHU216HW,2013-04-05 13:00:00,
2013-04-05 14:05:00,45.4,29.6,30.25,East,90,2.7,2.7,54,0.00,,,0.00,WUHU216HW,2013-04-05 13:05:00,
2013-04-05 14:10:00,45.0,28.9,30.24,WNW,293,1.1,2.7,53,0.00,,,0.00,WUHU216HW,2013-04-05 13:10:00,
2013-04-05 14:15:00,45.0,29.4,30.24,SE,135,0.9,1.1,54,0.00,,,0.00,WUHU216HW,2013-04-05 13:15:00,
2013-04-05 14:20:00,45.4,29.2,30.24,ENE,68,1.6,3.1,53,0.00,,,0.00,WUHU216HW,2013-04-05 13:20:00,
2013-04-05 14:25:00,45.9,30.2,30.24,NNW,338,1.6,3.1,54,0.00,,,0.00,WUHU216HW,2013-04-05 13:25:00,
2013-04-05 14:30:00,45.5,28.9,30.24,WNW,293,0.4,1.6,52,0.00,,,0.00,WUHU216HW,2013-04-05 13:30:00,
2013-04-05 14:35:00,44.8,28.7,30.24,ESE,113,0.4,1.6,53,0.00,,,0.00,WUHU216HW,2013-04-05 13:35:00,
2013-04-05 14:40:00,44.8,28.7,30.24,SE,135,3.1,3.1,53,0.00,,,0.00,WUHU216HW,2013-04-05 13:40:00,
2013-04-05 14:45:00,45.4,29.6,30.24,WSW,248,0.4,3.1,54,0.00,,,0.00,WUHU216HW,2013-04-05 13:45:00,
2013-04-05 14:50:00,46.3,29.5,30.23,ENE,68,0.4,3.1,52,0.00,,,0.00,WUHU216HW,2013-04-05 13:50:00,
2013-04-05 14:55:00,46.4,29.7,30.24,WNW,293,0.7,0.7,52,0.00,,,0.00,WUHU216HW,2013-04-05 13:55:00,
2013-04-05 15:00:00,46.4,30.2,30.24,North,0,0.0,0.7,53,0.00,,,0.00,WUHU216HW,2013-04-05 14:00:00,
2013-04-05 15:05:00,46.4,29.7,30.24,ESE,113,0.2,1.8,52,0.00,,,0.00,WUHU216HW,2013-04-05 14:05:00,
2013-04-05 15:10:00,46.6,29.4,30.24,ESE,113,2.5,2.5,51,0.00,,,0.00,WUHU216HW,2013-04-05 14:10:00,
2013-04-05 15:15:00,46.6,29.4,30.24,SE,135,0.4,2.5,51,0.00,,,0.00,WUHU216HW,2013-04-05 14:15:00,
2013-04-05 15:20:00,46.6,29.4,30.23,East,90,1.1,2.5,51,0.00,,,0.00,WUHU216HW,2013-04-05 14:20:00,
2013-04-05 15:25:00,46.6,29.0,30.23,SE,135,1.1,1.1,50,0.00,,,0.00,WUHU216HW,2013-04-05 14:25:00,
2013-04-05 15:30:00,46.8,29.6,30.23,WNW,293,0.0,1.1,51,0.00,,,0.00,WUHU216HW,2013-04-05 14:30:00,
2013-04-05 15:35:00,47.2,29.9,30.23,East,90,1.1,1.1,51,0.00,,,0.00,WUHU216HW,2013-04-05 14:35:00,
2013-04-05 15:40:00,47.2,29.4,30.23,ESE,113,0.2,1.1,50,0.00,,,0.00,WUHU216HW,2013-04-05 14:40:00,
2013-04-05 15:45:00,47.2,28.9,30.23,ENE,68,1.1,1.1,49,0.00,,,0.00,WUHU216HW,2013-04-05 14:45:00,
2013-04-05 15:50:00,46.4,28.8,30.23,West,270,0.0,1.1,50,0.00,,,0.00,WUHU216HW,2013-04-05 14:50:00,
2013-04-05 15:55:00,45.7,28.6,30.23,SSE,158,0.4,1.1,51,0.00,,,0.00,WUHU216HW,2013-04-05 14:55:00,
2013-04-05 16:00:00,46.1,28.9,30.23,East,90,1.1,1.1,51,0.00,,,0.00,WUHU216HW,2013-04-05 15:00:00,
2013-04-05 16:05:00,46.4,28.8,30.23,SE,135,2.5,2.5,50,0.00,,,0.00,WUHU216HW,2013-04-05 15:05:00,
2013-04-05 16:10:00,46.8,29.2,30.23,ESE,113,4.9,4.9,50,0.00,,,0.00,WUHU216HW,2013-04-05 15:10:00,
2013-04-05 16:15:00,46.8,29.2,30.23,West,270,1.3,4.9,50,0.00,,,0.00,WUHU216HW,2013-04-05 15:15:00,
2013-04-05 16:20:00,47.0,29.7,30.23,SSE,158,0.4,4.9,51,0.00,,,0.00,WUHU216HW,2013-04-05 15:20:00,
2013-04-05 16:25:00,47.0,29.7,30.23,WNW,293,0.7,1.3,51,0.00,,,0.00,WUHU216HW,2013-04-05 15:25:00,
2013-04-05 16:30:00,46.8,29.6,30.23,NE,45,0.7,0.7,51,0.00,,,0.00,WUHU216HW,2013-04-05 15:30:00,
2013-04-05 16:35:00,47.0,29.7,30.23,ENE,68,1.1,1.1,51,0.00,,,0.00,WUHU216HW,2013-04-05 15:35:00,
2013-04-05 16:40:00,47.2,29.9,30.22,NW,315,1.1,1.1,51,0.00,,,0.00,WUHU216HW,2013-04-05 15:40:00,
2013-04-05 16:45:00,47.2,29.4,30.22,WNW,293,0.2,1.1,50,0.00,,,0.00,WUHU216HW,2013-04-05 15:45:00,
2013-04-05 16:50:00,47.3,29.6,30.22,ENE,68,0.4,1.1,50,0.00,,,0.00,WUHU216HW,2013-04-05 15:50:00,
2013-04-05 16:55:00,47.3,29.6,30.22,East,90,0.4,0.7,50,0.00,,,0.00,WUHU216HW,2013-04-05 15:55:00,
2013-04-05 17:00:00,47.2,29.4,30.22,ESE,113,0.9,0.9,50,0.00,,,0.00,WUHU216HW,2013-04-05 16:00:00,
2013-04-05 17:05:00,47.0,29.3,30.22,ESE,113,0.0,1.1,50,0.00,,,0.00,WUHU216HW,2013-04-05 16:05:00,
2013-04-05 17:10:00,47.0,29.3,30.22,ESE,113,0.0,1.1,50,0.00,,,0.00,WUHU216HW,2013-04-05 16:10:00,
2013-04-05 17:15:00,47.0,29.3,30.22,SE,135,0.4,0.4,50,0.00,,,0.00,WUHU216HW,2013-04-05 16:15:00,
2013-04-05 17:20:00,47.2,28.9,30.22,SE,135,2.9,2.9,49,0.00,,,0.00,WUHU216HW,2013-04-05 16:20:00,
2013-04-05 17:25:00,47.0,28.2,30.22,ESE,113,0.7,2.9,48,0.00,,,0.00,WUHU216HW,2013-04-05 16:25:00,
2013-04-05 17:30:00,47.0,28.7,30.22,ESE,113,0.0,2.9,49,0.00,,,0.00,WUHU216HW,2013-04-05 16:30:00,
2013-04-05 17:35:00,46.8,29.2,30.22,WNW,293,0.7,0.7,50,0.00,,,0.00,WUHU216HW,2013-04-05 16:35:00,
2013-04-05 17:40:00,46.4,28.8,30.22,WNW,293,1.3,1.3,50,0.00,,,0.00,WUHU216HW,2013-04-05 16:40:00,
2013-04-05 17:45:00,46.4,28.8,30.22,WNW,293,0.0,1.3,50,0.00,,,0.00,WUHU216HW,2013-04-05 16:45:00,
2013-04-05 17:50:00,46.8,29.6,30.22,East,90,0.2,1.3,51,0.00,,,0.00,WUHU216HW,2013-04-05 16:50:00,
2013-04-05 17:55:00,46.8,29.6,30.22,East,90,0.0,0.9,51,0.00,,,0.00,WUHU216HW,2013-04-05 16:55:00,
2013-04-05 18:00:00,46.6,29.4,30.22,ESE,113,0.2,0.2,51,0.00,,,0.00,WUHU216HW,2013-04-05 17:00:00,
2013-04-05 18:05:00,46.6,29.0,30.22,ESE,113,1.1,1.1,50,0.00,,,0.00,WUHU216HW,2013-04-05 17:05:00,
2013-04-05 18:10:00,46.4,28.8,30.22,SE,135,0.7,1.1,50,0.00,,,0.00,WUHU216HW,2013-04-05 17:10:00,
2013-04-05 18:15:00,46.4,29.3,30.22,ESE,113,1.8,1.8,51,0.00,,,0.00,WUHU216HW,2013-04-05 17:15:00,
2013-04-05 18:20:00,46.4,28.8,30.22,ESE,113,0.2,1.8,50,0.00,,,0.00,WUHU216HW,2013-04-05 17:20:00,
2013-04-05 18:25:00,46.3,28.6,30.22,ESE,113,1.1,1.8,50,0.00,,,0.00,WUHU216HW,2013-04-05 17:25:00,
2013-04-05 18:30:00,46.1,28.4,30.22,ESE,113,0.4,1.1,50,0.00,,,0.00,WUHU216HW,2013-04-05 17:30:00,
2013-04-05 18:35:00,46.1,28.9,30.22,NE,45,0.4,1.1,51,0.00,,,0.00,WUHU216HW,2013-04-05 17:35:00,
2013-04-05 18:40:00,46.1,28.9,30.22,SE,135,0.4,0.4,51,0.00,,,0.00,WUHU216HW,2013-04-05 17:40:00,
2013-04-05 18:45:00,45.9,29.3,30.22,SE,135,0.4,0.4,52,0.00,,,0.00,WUHU216HW,2013-04-05 17:45:00,
2013-04-05 18:51:00,45.9,29.3,30.22,East,90,1.3,1.3,52,0.00,,,0.00,WUHU216HW,2013-04-05 17:51:00,
2013-04-05 18:56:00,45.5,28.9,30.22,SSE,158,0.9,1.3,52,0.00,,,0.00,WUHU216HW,2013-04-05 17:56:00,
2013-04-05 19:01:00,45.4,28.7,30.22,SE,135,0.4,1.1,52,0.00,,,0.00,WUHU216HW,2013-04-05 18:01:00,
2013-04-05 19:06:00,45.2,28.5,30.22,ESE,113,1.1,1.1,52,0.00,,,0.00,WUHU216HW,2013-04-05 18:06:00,
2013-04-05 19:11:00,45.0,28.9,30.22,ESE,113,0.7,1.6,53,0.00,,,0.00,WUHU216HW,2013-04-05 18:11:00,
2013-04-05 19:16:00,45.0,28.9,30.22,ESE,113,0.7,1.6,53,0.00,,,0.00,WUHU216HW,2013-04-05 18:16:00,
2013-04-05 19:21:00,44.8,28.7,30.22,ESE,113,0.4,0.7,53,0.00,,,0.00,WUHU216HW,2013-04-05 18:21:00,
2013-04-05 19:26:00,44.6,28.5,30.22,ESE,113,0.0,0.4,53,0.00,,,0.00,WUHU216HW,2013-04-05 18:26:00,
2013-04-05 19:31:00,44.5,28.4,30.22,East,90,0.0,1.3,53,0.00,,,0.00,WUHU216HW,2013-04-05 18:31:00,
2013-04-05 19:36:00,44.3,28.6,30.22,East,90,0.0,1.3,54,0.00,,,0.00,WUHU216HW,2013-04-05 18:36:00,
2013-04-05 19:41:00,44.1,28.4,30.22,East,90,0.0,0.0,54,0.00,,,0.00,WUHU216HW,2013-04-05 18:41:00,
2013-04-05 19:46:00,43.6,28.5,30.22,East,90,0.0,0.0,55,0.00,,,0.00,WUHU216HW,2013-04-05 18:46:00,
2013-04-05 19:51:00,43.2,28.5,30.22,East,90,0.0,0.0,56,0.00,,,0.00,WUHU216HW,2013-04-05 18:51:00,
2013-04-05 19:56:00,42.7,28.0,30.23,East,90,0.0,0.0,56,0.00,,,0.00,WUHU216HW,2013-04-05 18:56:00,
2013-04-05 20:01:00,42.1,27.5,30.22,East,90,0.0,0.0,56,0.00,,,0.00,WUHU216HW,2013-04-05 19:01:00,
2013-04-05 20:06:00,41.6,27.9,30.22,East,90,0.0,0.0,58,0.00,,,0.00,WUHU216HW,2013-04-05 19:06:00,
2013-04-05 20:12:00,41.4,27.7,30.22,East,90,0.2,0.2,58,0.00,,,0.00,WUHU216HW,2013-04-05 19:12:00,
2013-04-05 20:17:00,41.0,27.8,30.23,East,90,0.4,0.4,59,0.00,,,0.00,WUHU216HW,2013-04-05 19:17:00,
2013-04-05 20:22:00,40.9,27.6,30.23,East,90,0.9,0.9,59,0.00,,,0.00,WUHU216HW,2013-04-05 19:22:00,
2013-04-05 20:27:00,40.7,27.5,30.23,East,90,0.0,0.9,59,0.00,,,0.00,WUHU216HW,2013-04-05 19:27:00,
2013-04-05 20:32:00,40.3,27.5,30.23,East,90,0.2,0.9,60,0.00,,,0.00,WUHU216HW,2013-04-05 19:32:00,
2013-04-05 20:37:00,39.8,27.0,30.23,East,90,0.0,0.2,60,0.00,,,0.00,WUHU216HW,2013-04-05 19:37:00,
2013-04-05 20:42:00,39.6,27.2,30.24,East,90,0.0,0.2,61,0.00,,,0.00,WUHU216HW,2013-04-05 19:42:00,
2013-04-05 20:47:00,39.2,27.6,30.23,East,90,0.0,0.0,63,0.00,,,0.00,WUHU216HW,2013-04-05 19:47:00,
2013-04-05 20:52:00,39.2,27.6,30.24,East,90,0.4,0.4,63,0.00,,,0.00,WUHU216HW,2013-04-05 19:52:00,
2013-04-05 20:57:00,39.2,27.6,30.24,East,90,0.4,0.4,63,0.00,,,0.00,WUHU216HW,2013-04-05 19:57:00,
2013-04-05 21:02:00,39.2,28.0,30.24,East,90,0.2,0.4,64,0.00,,,0.00,WUHU216HW,2013-04-05 20:02:00,
2013-04-05 21:07:00,39.2,28.0,30.24,East,90,0.0,0.2,64,0.00,,,0.00,WUHU216HW,2013-04-05 20:07:00,
2013-04-05 21:12:00,39.1,27.8,30.24,East,90,0.9,0.9,64,0.00,,,0.00,WUHU216HW,2013-04-05 20:12:00,
2013-04-05 21:17:00,38.9,27.3,30.24,East,90,0.0,0.9,63,0.00,,,0.00,WUHU216HW,2013-04-05 20:17:00,
2013-04-05 21:22:00,38.7,27.1,30.24,East,90,0.0,0.0,63,0.00,,,0.00,WUHU216HW,2013-04-05 20:22:00,
2013-04-05 21:27:00,38.2,26.7,30.24,East,90,0.0,0.0,63,0.00,,,0.00,WUHU216HW,2013-04-05 20:27:00,
2013-04-05 21:32:00,37.8,26.3,30.25,East,90,0.0,0.0,63,0.00,,,0.00,WUHU216HW,2013-04-05 20:32:00,
2013-04-05 21:37:00,37.4,26.0,30.25,East,90,0.0,0.0,63,0.00,,,0.00,WUHU216HW,2013-04-05 20:37:00,
2013-04-05 21:42:00,36.4,25.4,30.25,East,90,0.0,0.0,64,0.00,,,0.00,WUHU216HW,2013-04-05 20:42:00,
2013-04-05 21:47:00,36.0,25.4,30.25,East,90,0.0,0.0,65,0.00,,,0.00,WUHU216HW,2013-04-05 20:47:00,
2013-04-05 21:52:00,35.6,25.0,30.25,East,90,0.0,0.0,65,0.00,,,0.00,WUHU216HW,2013-04-05 20:52:00,
2013-04-05 21:57:00,35.3,25.0,30.25,East,90,0.0,0.0,66,0.00,,,0.00,WUHU216HW,2013-04-05 20:57:00,
2013-04-05 22:03:00,35.1,24.8,30.25,East,90,0.0,0.0,66,0.00,,,0.00,WUHU216HW,2013-04-05 21:03:00,
2013-04-05 22:08:00,34.9,25.0,30.25,East,90,0.0,0.0,67,0.00,,,0.00,WUHU216HW,2013-04-05 21:08:00,
2013-04-05 22:13:00,34.9,25.0,30.25,East,90,0.0,0.0,67,0.00,,,0.00,WUHU216HW,2013-04-05 21:13:00,
2013-04-05 22:18:00,34.6,24.7,30.26,East,90,0.0,0.0,67,0.00,,,0.00,WUHU216HW,2013-04-05 21:18:00,
2013-04-05 22:23:00,34.4,24.5,30.26,East,90,0.0,0.0,67,0.00,,,0.00,WUHU216HW,2013-04-05 21:23:00,
2013-04-05 22:28:00,34.2,24.3,30.25,East,90,0.0,0.0,67,0.00,,,0.00,WUHU216HW,2013-04-05 21:28:00,
2013-04-05 22:33:00,33.8,24.3,30.26,East,90,0.0,0.0,68,0.00,,,0.00,WUHU216HW,2013-04-05 21:33:00,
2013-04-05 22:38:00,33.7,24.1,30.26,East,90,0.0,0.0,68,0.00,,,0.00,WUHU216HW,2013-04-05 21:38:00,
2013-04-05 22:43:00,33.5,24.3,30.26,East,90,0.0,0.0,69,0.00,,,0.00,WUHU216HW,2013-04-05 21:43:00,
2013-04-05 22:48:00,33.5,24.3,30.26,East,90,0.0,0.0,69,0.00,,,0.00,WUHU216HW,2013-04-05 21:48:00,
2013-04-05 22:53:00,33.5,24.3,30.26,East,90,0.0,0.0,69,0.00,,,0.00,WUHU216HW,2013-04-05 21:53:00,
2013-04-05 22:58:00,33.1,24.0,30.26,East,90,0.0,0.0,69,0.00,,,0.00,WUHU216HW,2013-04-05 21:58:00,
2013-04-05 23:03:00,33.3,24.6,30.26,East,90,0.0,0.0,70,0.00,,,0.00,WUHU216HW,2013-04-05 22:03:00,
2013-04-05 23:08:00,33.1,24.0,30.26,East,90,0.0,0.0,69,0.00,,,0.00,WUHU216HW,2013-04-05 22:08:00,
2013-04-05 23:13:00,32.8,24.0,30.26,East,90,0.2,0.2,70,0.00,,,0.00,WUHU216HW,2013-04-05 22:13:00,
2013-04-05 23:18:00,32.6,23.9,30.25,East,90,0.0,0.2,70,0.00,,,0.00,WUHU216HW,2013-04-05 22:18:00,
2013-04-05 23:23:00,32.6,24.2,30.26,East,90,0.0,0.2,71,0.00,,,0.00,WUHU216HW,2013-04-05 22:23:00,
2013-04-05 23:28:00,32.2,23.6,30.25,East,90,0.0,0.0,70,0.00,,,0.00,WUHU216HW,2013-04-05 22:28:00,
2013-04-05 23:33:00,32.2,23.9,30.26,East,90,0.0,0.0,71,0.00,,,0.00,WUHU216HW,2013-04-05 22:33:00,
2013-04-05 23:38:00,32.0,23.4,30.26,East,90,0.0,0.0,70,0.00,,,0.00,WUHU216HW,2013-04-05 22:38:00,
2013-04-05 23:43:00,32.0,23.8,30.26,East,90,0.0,0.0,71,0.00,,,0.00,WUHU216HW,2013-04-05 22:43:00,
2013-04-05 23:48:00,32.0,23.8,30.26,East,90,0.0,0.0,71,0.00,,,0.00,WUHU216HW,2013-04-05 22:48:00,
2013-04-05 23:53:00,31.9,23.6,30.26,East,90,0.0,0.0,71,0.00,,,0.00,WUHU216HW,2013-04-05 22:53:00,
2013-04-05 23:58:00,31.9,23.6,30.26,East,90,0.0,0.0,71,0.00,,,0.00,WUHU216HW,2013-04-05 22:58:00,